﻿#,"Date Time, GMT+00:00","Temp, °C (LGR S/N: 10121359, SEN S/N: 10121359)","RH, % (LGR S/N: 10121359, SEN S/N: 10121359)","DewPt, °C (LGR S/N: 10121359, SEN S/N: 10121359)",Coupler Detached (LGR S/N: 10121359),Coupler Attached (LGR S/N: 10121359),Host Connected (LGR S/N: 10121359),End Of File (LGR S/N: 10121359)
1,3/29/2019 12:00,16.058,54.243,7.105,Logged,,,
2,3/29/2019 12:15,15.652,54.977,6.917,,,,
3,3/29/2019 12:30,16.344,52.443,6.892,,,,
4,3/29/2019 12:45,16.439,51.593,6.747,,,,
5,3/29/2019 13:00,16.796,50.837,6.868,,,,
6,3/29/2019 13:15,16.487,51.043,6.639,,,,
7,3/29/2019 13:30,16.654,53.717,7.521,,,,
8,3/29/2019 13:45,16.558,52.566,7.124,,,,
9,3/29/2019 14:00,16.939,52.126,7.358,,,,
10,3/29/2019 14:15,16.844,52.205,7.291,,,,
11,3/29/2019 14:30,17.177,50.206,7.041,,,,
12,3/29/2019 14:45,17.201,45.033,5.507,,,,
13,3/29/2019 15:00,17.082,45.556,5.564,,,,
14,3/29/2019 15:15,17.249,46.554,6.026,,,,
15,3/29/2019 15:30,17.415,49.552,7.073,,,,
16,3/29/2019 15:45,17.272,50.561,7.23,,,,
17,3/29/2019 16:00,16.939,51.786,7.264,,,,
18,3/29/2019 16:15,15.986,54.172,7.02,,,,
19,3/29/2019 16:30,16.201,53.529,7.05,,,,
20,3/29/2019 16:45,15.27,55.225,6.624,,,,
21,3/29/2019 17:00,14.242,57.728,6.282,,,,
22,3/29/2019 17:15,13.762,58.911,6.114,,,,
23,3/29/2019 17:30,13.594,59.242,6.033,,,,
24,3/29/2019 17:45,13.209,58.644,5.53,,,,
25,3/29/2019 18:00,12.727,58.687,5.086,,,,
26,3/29/2019 18:15,12.268,60.659,5.108,,,,
27,3/29/2019 18:30,11.953,62.607,5.243,,,,
28,3/29/2019 18:45,11.613,64.241,5.272,,,,
29,3/29/2019 19:00,11.2,66.338,5.315,,,,
30,3/29/2019 19:15,10.81,68.417,5.36,,,,
31,3/29/2019 19:30,10.516,69.784,5.345,,,,
32,3/29/2019 19:45,10.1,71.904,5.345,,,,
33,3/29/2019 20:00,9.682,73.777,5.284,,,,
34,3/29/2019 20:15,9.262,75.243,5.138,,,,
35,3/29/2019 20:30,8.866,76.426,4.959,,,,
36,3/29/2019 20:45,8.568,77.647,4.877,,,,
37,3/29/2019 21:00,8.27,79.076,4.824,,,,
38,3/29/2019 21:15,8.07,79.949,4.772,,,,
39,3/29/2019 21:30,7.845,80.491,4.64,,,,
40,3/29/2019 21:45,7.569,81.419,4.518,,,,
41,3/29/2019 22:00,7.293,82.235,4.375,,,,
42,3/29/2019 22:15,7.091,83.196,4.326,,,,
43,3/29/2019 22:30,7.015,83.68,4.326,,,,
44,3/29/2019 22:45,6.864,84.145,4.248,,,,
45,3/29/2019 23:00,6.636,84.564,4.087,,,,
46,3/29/2019 23:15,6.509,85.214,4.059,,,,
47,3/29/2019 23:30,6.458,85.593,4.065,,,,
48,3/29/2019 23:45,6.306,86.155,3.998,,,,
49,3/30/2019 0:00,6.204,86.52,3.951,,,,
50,3/30/2019 0:15,6.051,86.664,3.82,,,,
51,3/30/2019 0:30,6.102,86.78,3.888,,,,
52,3/30/2019 0:45,5.975,86.956,3.787,,,,
53,3/30/2019 1:00,5.847,87.235,3.701,,,,
54,3/30/2019 1:15,5.796,87.686,3.715,,,,
55,3/30/2019 1:30,5.514,87.874,3.463,,,,
56,3/30/2019 1:45,5.693,88.175,3.683,,,,
57,3/30/2019 2:00,5.591,88.329,3.604,,,,
58,3/30/2019 2:15,5.334,88.547,3.38,,,,
59,3/30/2019 2:30,5.257,88.886,3.351,,,,
60,3/30/2019 2:45,5.102,89.433,3.274,,,,
61,3/30/2019 3:00,4.869,90.034,3.126,,,,
62,3/30/2019 3:15,4.584,90.644,2.926,,,,
63,3/30/2019 3:30,4.48,91.323,2.914,,,,
64,3/30/2019 3:45,4.272,92.121,2.814,,,,
65,3/30/2019 4:00,4.272,92.72,2.893,,,,
66,3/30/2019 4:15,4.194,93.347,2.897,,,,
67,3/30/2019 4:30,4.272,93.74,3.026,,,,
68,3/30/2019 4:45,4.48,94.217,3.296,,,,
69,3/30/2019 5:00,4.324,94.522,3.179,,,,
70,3/30/2019 5:15,4.298,94.613,3.165,,,,
71,3/30/2019 5:30,4.141,94.892,3.044,,,,
72,3/30/2019 5:45,4.298,95.057,3.221,,,,
73,3/30/2019 6:00,4.194,94.931,3.101,,,,
74,3/30/2019 6:15,4.011,95.226,2.956,,,,
75,3/30/2019 6:30,4.141,95.359,3.103,,,,
76,3/30/2019 6:45,4.324,95.458,3.298,,,,
77,3/30/2019 7:00,4.428,95.437,3.4,,,,
78,3/30/2019 7:15,4.714,95.417,3.683,,,,
79,3/30/2019 7:30,4.895,95.219,3.839,,,,
80,3/30/2019 7:45,5.076,94.724,3.956,,,,
81,3/30/2019 8:00,5.693,93.995,4.478,,,,
82,3/30/2019 8:15,6.255,92.438,4.831,,,,
83,3/30/2019 8:30,6.255,90.387,4.551,,,,
84,3/30/2019 8:45,6.458,89.058,4.567,,,,
85,3/30/2019 9:00,6.839,87.917,4.781,,,,
86,3/30/2019 9:15,7.519,85.612,5.115,,,,
87,3/30/2019 9:30,8.444,81.858,5.446,,,,
88,3/30/2019 9:45,8.045,81.072,4.929,,,,
89,3/30/2019 10:00,8.618,79.612,5.253,,,,
90,3/30/2019 10:15,10.026,76.422,6.087,,,,
91,3/30/2019 10:30,10.565,73.844,6.152,,,,
92,3/30/2019 10:45,11.102,72.382,6.403,,,,
93,3/30/2019 11:00,10.736,70.817,5.754,,,,
94,3/30/2019 11:15,11.467,69.937,6.289,,,,
95,3/30/2019 11:30,11.977,68.291,6.455,,,,
96,3/30/2019 11:45,11.953,67.597,6.292,,,,
97,3/30/2019 12:00,12.195,67.297,6.464,,,,
98,3/30/2019 12:15,12.92,65.924,6.874,,,,
99,3/30/2019 12:30,13.137,66.108,7.119,,,,
100,3/30/2019 12:45,13.353,66.175,7.341,,,,
101,3/30/2019 13:00,13.401,64.991,7.136,,,,
102,3/30/2019 13:15,13.858,63.489,7.247,,,,
103,3/30/2019 13:30,13.81,64.77,7.479,,,,
104,3/30/2019 13:45,13.257,66.303,7.275,,,,
105,3/30/2019 14:00,13.064,66.211,7.072,,,,
106,3/30/2019 14:15,13.449,65.378,7.265,,,,
107,3/30/2019 14:30,13.81,64.273,7.372,,,,
108,3/30/2019 14:45,13.642,64.419,7.243,,,,
109,3/30/2019 15:00,13.978,62.803,7.209,,,,
110,3/30/2019 15:15,13.93,63.677,7.356,,,,
111,3/30/2019 15:30,13.93,63.619,7.344,,,,
112,3/30/2019 15:45,14.649,60.544,7.333,,,,
113,3/30/2019 16:00,13.714,61.371,6.638,,,,
114,3/30/2019 16:15,13.906,61.698,6.894,,,,
115,3/30/2019 16:30,13.257,62.534,6.465,,,,
116,3/30/2019 16:45,13.257,63.21,6.614,,,,
117,3/30/2019 17:00,12.896,63.88,6.416,,,,
118,3/30/2019 17:15,12.896,64.435,6.536,,,,
119,3/30/2019 17:30,12.63,65.146,6.434,,,,
120,3/30/2019 17:45,12.219,67.042,6.435,,,,
121,3/30/2019 18:00,11.516,70.287,6.404,,,,
122,3/30/2019 18:15,11.224,71.73,6.398,,,,
123,3/30/2019 18:30,11.127,72.809,6.506,,,,
124,3/30/2019 18:45,10.785,73.525,6.307,,,,
125,3/30/2019 19:00,10.492,74.608,6.219,,,,
126,3/30/2019 19:15,10.369,75.61,6.278,,,,
127,3/30/2019 19:30,9.41,80.732,6.212,,,,
128,3/30/2019 19:45,8.99,83.37,6.221,,,,
129,3/30/2019 20:00,8.643,84.562,6.064,,,,
130,3/30/2019 20:15,8.543,85.225,6.067,,,,
131,3/30/2019 20:30,8.618,85.295,6.151,,,,
132,3/30/2019 20:45,8.717,85.529,6.285,,,,
133,3/30/2019 21:00,8.618,85.716,6.215,,,,
134,3/30/2019 21:15,8.494,86.002,6.135,,,,
135,3/30/2019 21:30,8.295,86.53,6.017,,,,
136,3/30/2019 21:45,7.995,86.954,5.784,,,,
137,3/30/2019 22:00,7.87,87.938,5.805,,,,
138,3/30/2019 22:15,7.569,88.795,5.63,,,,
139,3/30/2019 22:30,7.368,89.953,5.596,,,,
140,3/30/2019 22:45,7.293,90.548,5.604,,,,
141,3/30/2019 23:00,7.015,91.192,5.418,,,,
142,3/30/2019 23:15,6.914,91.496,5.359,,,,
143,3/30/2019 23:30,6.864,91.381,5.293,,,,
144,3/30/2019 23:45,6.712,90.452,5.014,,,,
145,3/31/2019 0:00,6.687,88.086,4.655,,,,
146,3/31/2019 0:15,6.914,81.963,3.961,,,,
147,3/31/2019 0:30,6.94,83.741,4.261,,,,
148,3/31/2019 0:45,6.763,84.908,4.263,,,,
149,3/31/2019 1:00,6.661,82.991,3.872,,,,
150,3/31/2019 1:15,6.636,79.257,3.257,,,,
151,3/31/2019 1:30,6.636,75.793,2.681,,,,
152,3/31/2019 1:45,6.661,76.207,2.776,,,,
153,3/31/2019 2:00,6.636,76.8,2.851,,,,
154,3/31/2019 2:15,6.611,76.55,2.785,,,,
155,3/31/2019 2:30,6.585,76.925,2.823,,,,
156,3/31/2019 2:45,6.56,77.677,2.924,,,,
157,3/31/2019 3:00,6.408,79.823,3.125,,,,
158,3/31/2019 3:15,6.357,80.559,3.193,,,,
159,3/31/2019 3:30,6.408,80.917,3.3,,,,
160,3/31/2019 3:45,6.408,81.077,3.325,,,,
161,3/31/2019 4:00,6.357,81.278,3.307,,,,
162,3/31/2019 4:15,6.357,82.021,3.423,,,,
163,3/31/2019 4:30,6.23,82.917,3.436,,,,
164,3/31/2019 4:45,6.102,83.94,3.467,,,,
165,3/31/2019 5:00,5.975,85.087,3.513,,,,
166,3/31/2019 5:15,5.847,86.149,3.543,,,,
167,3/31/2019 5:30,5.821,86.867,3.623,,,,
168,3/31/2019 5:45,5.693,87.249,3.551,,,,
169,3/31/2019 6:00,5.591,87.739,3.52,,,,
170,3/31/2019 6:15,5.591,88.098,3.571,,,,
171,3/31/2019 6:30,5.719,87.925,3.673,,,,
172,3/31/2019 6:45,5.949,87.853,3.891,,,,
173,3/31/2019 7:00,6.051,87.285,3.91,,,,
174,3/31/2019 7:15,6.306,86.337,4.024,,,,
175,3/31/2019 7:30,7.217,83.384,4.479,,,,
176,3/31/2019 7:45,7.444,79.918,4.154,,,,
177,3/31/2019 8:00,7.469,76.077,3.539,,,,
178,3/31/2019 8:15,8.245,73.874,3.908,,,,
179,3/31/2019 8:30,8.593,71.496,3.814,,,,
180,3/31/2019 8:45,9.139,68.9,3.849,,,,
181,3/31/2019 9:00,8.916,67.809,3.422,,,,
182,3/31/2019 9:15,8.941,66.475,3.181,,,,
183,3/31/2019 9:30,9.435,63.775,3.099,,,,
184,3/31/2019 9:45,9.805,62.795,3.243,,,,
185,3/31/2019 10:00,10.247,59.003,2.821,,,,
186,3/31/2019 10:15,10.663,56.188,2.55,,,,
187,3/31/2019 10:30,10.736,58.282,3.116,,,,
188,3/31/2019 10:45,9.854,55.438,1.61,,,,
189,3/31/2019 11:00,10.98,52.93,2.034,,,,
190,3/31/2019 11:15,11.127,52.285,2.003,,,,
191,3/31/2019 11:30,10.394,53.901,1.734,,,,
192,3/31/2019 11:45,9.854,55.856,1.711,,,,
193,3/31/2019 12:00,9.952,56.794,2.028,,,,
194,3/31/2019 12:15,9.657,55.796,1.512,,,,
195,3/31/2019 12:30,9.854,54.361,1.345,,,,
196,3/31/2019 12:45,9.756,54.856,1.375,,,,
197,3/31/2019 13:00,9.977,53.779,1.314,,,,
198,3/31/2019 13:15,9.977,53.899,1.345,,,,
199,3/31/2019 13:30,10.001,54.833,1.599,,,,
200,3/31/2019 13:45,9.879,54.335,1.361,,,,
201,3/31/2019 14:00,9.903,54.878,1.519,,,,
202,3/31/2019 14:15,9.829,54.597,1.381,,,,
203,3/31/2019 14:30,9.608,54.535,1.158,,,,
204,3/31/2019 14:45,9.977,53.629,1.277,,,,
205,3/31/2019 15:00,10.124,52.717,1.182,,,,
206,3/31/2019 15:15,9.731,53.623,1.046,,,,
207,3/31/2019 15:30,9.854,54.152,1.293,,,,
208,3/31/2019 15:45,9.805,52.097,0.725,,,,
209,3/31/2019 16:00,9.805,53.032,0.965,,,,
210,3/31/2019 16:15,9.336,56.045,1.271,,,,
211,3/31/2019 16:30,9.163,56.88,1.308,,,,
212,3/31/2019 16:45,8.891,57.252,1.139,,,,
213,3/31/2019 17:00,8.941,57.023,1.132,,,,
214,3/31/2019 17:15,8.717,57.106,0.942,,,,
215,3/31/2019 17:30,8.469,57.805,0.87,,,,
216,3/31/2019 17:45,8.319,59.25,1.058,,,,
217,3/31/2019 18:00,8.17,59.109,0.885,,,,
218,3/31/2019 18:15,7.945,59.862,0.841,,,,
219,3/31/2019 18:30,7.72,61.802,1.05,,,,
220,3/31/2019 18:45,7.268,63.742,1.028,,,,
221,3/31/2019 19:00,6.864,65.87,1.074,,,,
222,3/31/2019 19:15,6.712,66.552,1.063,,,,
223,3/31/2019 19:30,6.56,68.273,1.251,,,,
224,3/31/2019 19:45,6.281,70.626,1.422,,,,
225,3/31/2019 20:00,6.128,70.651,1.279,,,,
226,3/31/2019 20:15,6,71.597,1.328,,,,
227,3/31/2019 20:30,5.745,72.541,1.25,,,,
228,3/31/2019 20:45,5.539,73.324,1.19,,,,
229,3/31/2019 21:00,5.334,73.611,1.04,,,,
230,3/31/2019 21:15,5.334,73.584,1.036,,,,
231,3/31/2019 21:30,5.231,74.873,1.158,,,,
232,3/31/2019 21:45,4.973,76.149,1.123,,,,
233,3/31/2019 22:00,4.766,76.537,0.986,,,,
234,3/31/2019 22:15,4.714,77.199,1.045,,,,
235,3/31/2019 22:30,4.636,77.639,1.041,,,,
236,3/31/2019 22:45,4.766,77.64,1.167,,,,
237,3/31/2019 23:00,4.844,77.388,1.202,,,,
238,3/31/2019 23:15,4.895,77.184,1.219,,,,
239,3/31/2019 23:30,4.921,77.432,1.285,,,,
240,3/31/2019 23:45,4.714,78.192,1.207,,,,
241,4/1/2019 0:00,4.272,79.349,0.96,,,,
242,4/1/2019 0:15,4.194,80.313,1.035,,,,
243,4/1/2019 0:30,4.089,80.607,0.978,,,,
244,4/1/2019 0:45,4.141,80.592,1.027,,,,
245,4/1/2019 1:00,4.168,80.281,1.004,,,,
246,4/1/2019 1:15,3.958,80.419,0.821,,,,
247,4/1/2019 1:30,4.089,80.58,0.974,,,,
248,4/1/2019 1:45,3.985,80.847,0.913,,,,
249,4/1/2019 2:00,4.089,81.029,1.044,,,,
250,4/1/2019 2:15,4.089,81.082,1.052,,,,
251,4/1/2019 2:30,4.194,81.211,1.175,,,,
252,4/1/2019 2:45,4.194,81.053,1.15,,,,
253,4/1/2019 3:00,4.194,80.63,1.085,,,,
254,4/1/2019 3:15,4.246,79.901,1.022,,,,
255,4/1/2019 3:30,4.324,79.228,0.992,,,,
256,4/1/2019 3:45,4.402,78.739,0.99,,,,
257,4/1/2019 4:00,4.558,77.729,0.979,,,,
258,4/1/2019 4:15,4.402,76.729,0.663,,,,
259,4/1/2019 4:30,4.402,75.622,0.479,,,,
260,4/1/2019 4:45,4.35,75.205,0.359,,,,
261,4/1/2019 5:00,4.246,75.292,0.272,,,,
262,4/1/2019 5:15,4.168,74.842,0.12,,,,
263,4/1/2019 5:30,4.194,75.037,0.178,,,,
264,4/1/2019 5:45,4.089,74.88,0.05,,,,
265,4/1/2019 6:00,4.298,74.299,0.154,,,,
266,4/1/2019 6:15,4.35,73.547,0.076,,,,
267,4/1/2019 6:30,4.376,73.252,0.05,,,,
268,4/1/2019 6:45,4.402,73.12,0.052,,,,
269,4/1/2019 7:00,4.636,72.455,0.162,,,,
270,4/1/2019 7:15,4.61,72.587,0.16,,,,
271,4/1/2019 7:30,5.282,72.062,0.718,,,,
272,4/1/2019 7:45,5.462,71.436,0.78,,,,
273,4/1/2019 8:00,5.796,70.559,0.942,,,,
274,4/1/2019 8:15,6,70.265,1.085,,,,
275,4/1/2019 8:30,6.306,69.431,1.225,,,,
276,4/1/2019 8:45,6.102,69.308,1.006,,,,
277,4/1/2019 9:00,6.458,68.704,1.235,,,,
278,4/1/2019 9:15,7.091,68.795,1.86,,,,
279,4/1/2019 9:30,6.712,70.291,1.776,,,,
280,4/1/2019 9:45,7.217,69.437,2.103,,,,
281,4/1/2019 10:00,7.82,67.577,2.326,,,,
282,4/1/2019 10:15,7.519,68.087,2.136,,,,
283,4/1/2019 10:30,7.77,69.234,2.596,,,,
284,4/1/2019 10:45,8.045,67.477,2.522,,,,
285,4/1/2019 11:00,7.82,67.152,2.242,,,,
286,4/1/2019 11:15,8.319,66.076,2.507,,,,
287,4/1/2019 11:30,8.419,65.694,2.525,,,,
288,4/1/2019 11:45,8.668,65.424,2.708,,,,
289,4/1/2019 12:00,9.139,65.221,3.117,,,,
290,4/1/2019 12:15,9.632,62.271,2.967,,,,
291,4/1/2019 12:30,9.558,64.056,3.276,,,,
292,4/1/2019 12:45,9.977,62.243,3.287,,,,
293,4/1/2019 13:00,9.879,62.342,3.216,,,,
294,4/1/2019 13:15,10.565,61.495,3.682,,,,
295,4/1/2019 13:30,10.149,62.476,3.501,,,,
296,4/1/2019 13:45,10.541,61.9,3.748,,,,
297,4/1/2019 14:00,10.516,61.135,3.556,,,,
298,4/1/2019 14:15,10.736,61.23,3.786,,,,
299,4/1/2019 14:30,11.637,59.078,4.15,,,,
300,4/1/2019 14:45,11.492,58.461,3.869,,,,
301,4/1/2019 15:00,11.856,56.82,3.822,,,,
302,4/1/2019 15:15,11.929,57.428,4.036,,,,
303,4/1/2019 15:30,12.195,56.153,3.978,,,,
304,4/1/2019 15:45,11.88,56.644,3.802,,,,
305,4/1/2019 16:00,12.098,56.647,4.007,,,,
306,4/1/2019 16:15,12.001,56.063,3.774,,,,
307,4/1/2019 16:30,11.953,56.415,3.815,,,,
308,4/1/2019 16:45,11.662,57.238,3.74,,,,
309,4/1/2019 17:00,11.807,57.618,3.967,,,,
310,4/1/2019 17:15,11.832,58.009,4.083,,,,
311,4/1/2019 17:30,11.613,58.777,4.057,,,,
312,4/1/2019 17:45,11.37,60.07,4.125,,,,
313,4/1/2019 18:00,11.273,60.673,4.169,,,,
314,4/1/2019 18:15,11.005,61.89,4.186,,,,
315,4/1/2019 18:30,10.883,62.717,4.251,,,,
316,4/1/2019 18:45,10.638,63.781,4.247,,,,
317,4/1/2019 19:00,10.443,64.905,4.296,,,,
318,4/1/2019 19:15,10.026,66.27,4.179,,,,
319,4/1/2019 19:30,9.706,67.813,4.181,,,,
320,4/1/2019 19:45,9.632,68.653,4.275,,,,
321,4/1/2019 20:00,9.361,69.819,4.239,,,,
322,4/1/2019 20:15,9.015,71.018,4.132,,,,
323,4/1/2019 20:30,8.742,72.976,4.229,,,,
324,4/1/2019 20:45,8.543,74.432,4.297,,,,
325,4/1/2019 21:00,8.369,75.306,4.282,,,,
326,4/1/2019 21:15,8.07,76.422,4.184,,,,
327,4/1/2019 21:30,7.895,77.231,4.151,,,,
328,4/1/2019 21:45,7.82,77.46,4.116,,,,
329,4/1/2019 22:00,7.67,78.404,4.127,,,,
330,4/1/2019 22:15,7.569,79.004,4.128,,,,
331,4/1/2019 22:30,7.217,79.707,3.899,,,,
332,4/1/2019 22:45,7.041,80.472,3.849,,,,
333,4/1/2019 23:00,6.965,80.803,3.828,,,,
334,4/1/2019 23:15,7.015,80.6,3.845,,,,
335,4/1/2019 23:30,6.94,80.77,3.798,,,,
336,4/1/2019 23:45,6.788,80.816,3.656,,,,
337,4/2/2019 0:00,6.737,81.072,3.647,,,,
338,4/2/2019 0:15,6.712,81.252,3.651,,,,
339,4/2/2019 0:30,6.94,80.69,3.785,,,,
340,4/2/2019 0:45,6.914,80.15,3.674,,,,
341,4/2/2019 1:00,6.813,80.314,3.601,,,,
342,4/2/2019 1:15,6.99,79.845,3.699,,,,
343,4/2/2019 1:30,6.864,79.763,3.562,,,,
344,4/2/2019 1:45,6.914,80.15,3.674,,,,
345,4/2/2019 2:00,7.066,79.62,3.736,,,,
346,4/2/2019 2:15,7.192,78.678,3.706,,,,
347,4/2/2019 2:30,7.066,78.813,3.605,,,,
348,4/2/2019 2:45,7.142,79.045,3.717,,,,
349,4/2/2019 3:00,7.268,78.857,3.809,,,,
350,4/2/2019 3:15,7.066,79.915,3.784,,,,
351,4/2/2019 3:30,6.914,79.935,3.639,,,,
352,4/2/2019 3:45,6.458,80.556,3.292,,,,
353,4/2/2019 4:00,5.949,83.956,3.318,,,,
354,4/2/2019 4:15,5.77,86.208,3.476,,,,
355,4/2/2019 4:30,5.565,87.372,3.442,,,,
356,4/2/2019 4:45,5.539,88.393,3.562,,,,
357,4/2/2019 5:00,5.282,89.3,3.434,,,,
358,4/2/2019 5:15,5.076,89.935,3.318,,,,
359,4/2/2019 5:30,5.024,90.2,3.303,,,,
360,4/2/2019 5:45,4.999,90.498,3.318,,,,
361,4/2/2019 6:00,5.024,90.757,3.379,,,,
362,4/2/2019 6:15,4.999,90.902,3.373,,,,
363,4/2/2019 6:30,5.024,90.782,3.382,,,,
364,4/2/2019 6:45,5.179,90.595,3.511,,,,
365,4/2/2019 7:00,5.437,89.696,3.642,,,,
366,4/2/2019 7:15,5.462,88.323,3.476,,,,
367,4/2/2019 7:30,5.745,87.622,3.655,,,,
368,4/2/2019 7:45,5.949,86.303,3.667,,,,
369,4/2/2019 8:00,6.051,85.782,3.691,,,,
370,4/2/2019 8:15,6.255,85.675,3.877,,,,
371,4/2/2019 8:30,6.458,85.489,4.05,,,,
372,4/2/2019 8:45,6.458,85.254,4.015,,,,
373,4/2/2019 9:00,6.306,84.119,3.694,,,,
374,4/2/2019 9:15,6.128,84.208,3.532,,,,
375,4/2/2019 9:30,6.102,85.586,3.713,,,,
376,4/2/2019 9:45,5.975,85.92,3.636,,,,
377,4/2/2019 10:00,6.509,85.319,4.075,,,,
378,4/2/2019 10:15,6.687,81.193,3.617,,,,
379,4/2/2019 10:30,7.041,79.184,3.641,,,,
380,4/2/2019 10:45,7.091,77.765,3.456,,,,
381,4/2/2019 11:00,7.343,74.021,3.06,,,,
382,4/2/2019 11:15,7.594,71.161,2.788,,,,
383,4/2/2019 11:30,7.519,71.146,2.713,,,,
384,4/2/2019 11:45,7.87,68.266,2.507,,,,
385,4/2/2019 12:00,8.17,65.964,2.341,,,,
386,4/2/2019 12:15,8.742,62.729,2.219,,,,
387,4/2/2019 12:30,9.064,62.784,2.537,,,,
388,4/2/2019 12:45,8.369,64.338,2.201,,,,
389,4/2/2019 13:00,7.519,71.954,2.86,,,,
390,4/2/2019 13:15,9.583,62.757,3.024,,,,
391,4/2/2019 13:30,9.361,58.684,1.913,,,,
392,4/2/2019 13:45,9.829,57.102,1.986,,,,
393,4/2/2019 14:00,9.188,61.294,2.333,,,,
394,4/2/2019 14:15,8.891,62.146,2.236,,,,
395,4/2/2019 14:30,8.668,57.778,1.051,,,,
396,4/2/2019 14:45,9.879,57.228,2.062,,,,
397,4/2/2019 15:00,10.443,55.796,2.249,,,,
398,4/2/2019 15:15,10.687,53.914,2.011,,,,
399,4/2/2019 15:30,10.394,52.725,1.435,,,,
400,4/2/2019 15:45,10.834,51.303,1.473,,,,
401,4/2/2019 16:00,10.124,53.59,1.404,,,,
402,4/2/2019 16:15,8.618,59.592,1.417,,,,
403,4/2/2019 16:30,8.543,60.865,1.628,,,,
404,4/2/2019 16:45,8.866,60.013,1.746,,,,
405,4/2/2019 17:00,8.319,57.015,0.546,,,,
406,4/2/2019 17:15,8.145,56.899,0.355,,,,
407,4/2/2019 17:30,7.72,60.757,0.824,,,,
408,4/2/2019 17:45,7.217,64.965,1.23,,,,
409,4/2/2019 18:00,6.763,67.127,1.224,,,,
410,4/2/2019 18:15,6.509,68.095,1.168,,,,
411,4/2/2019 18:30,6.331,68.427,1.06,,,,
412,4/2/2019 18:45,6.255,68.861,1.069,,,,
413,4/2/2019 19:00,6.179,68.426,0.913,,,,
414,4/2/2019 19:15,6.153,68.309,0.867,,,,
415,4/2/2019 19:30,6.128,69.089,0.989,,,,
416,4/2/2019 19:45,5.821,70.675,0.988,,,,
417,4/2/2019 20:00,5.462,72.181,0.913,,,,
418,4/2/2019 20:15,5.437,72.589,0.961,,,,
419,4/2/2019 20:30,5.437,72.066,0.868,,,,
420,4/2/2019 20:45,5.282,72.558,0.806,,,,
421,4/2/2019 21:00,5.128,73.405,0.805,,,,
422,4/2/2019 21:15,5.024,73.767,0.768,,,,
423,4/2/2019 21:30,4.869,74.09,0.673,,,,
424,4/2/2019 21:45,4.792,74.863,0.73,,,,
425,4/2/2019 22:00,4.74,75.531,0.792,,,,
426,4/2/2019 22:15,4.558,76.142,0.718,,,,
427,4/2/2019 22:30,4.402,76.836,0.681,,,,
428,4/2/2019 22:45,4.141,77.693,0.567,,,,
429,4/2/2019 23:00,4.141,78.761,0.739,,,,
430,4/2/2019 23:15,3.932,80.043,0.737,,,,
431,4/2/2019 23:30,3.801,81.096,0.772,,,,
432,4/2/2019 23:45,3.67,82.142,0.803,,,,
433,4/3/2019 0:00,3.459,82.825,0.699,,,,
434,4/3/2019 0:15,3.301,83.205,0.6,,,,
435,4/3/2019 0:30,3.301,83.621,0.661,,,,
436,4/3/2019 0:45,3.142,83.921,0.549,,,,
437,4/3/2019 1:00,3.063,83.98,0.479,,,,
438,4/3/2019 1:15,2.877,84.142,0.32,,,,
439,4/3/2019 1:30,2.69,84.692,0.217,,,,
440,4/3/2019 1:45,2.584,85.027,0.16,,,,
441,4/3/2019 2:00,2.396,85.315,0.017,,,,
442,4/3/2019 2:15,2.503,85.187,0.104,,,,
443,4/3/2019 2:30,2.396,84.904,-0.042,,,,
444,4/3/2019 2:45,2.236,85.302,-0.144,,,,
445,4/3/2019 3:00,1.994,85.832,-0.307,,,,
446,4/3/2019 3:15,2.021,85.89,-0.273,,,,
447,4/3/2019 3:30,1.751,85.824,-0.548,,,,
448,4/3/2019 3:45,1.724,86.378,-0.497,,,,
449,4/3/2019 4:00,1.805,86.856,-0.35,,,,
450,4/3/2019 4:15,1.697,86.982,-0.44,,,,
451,4/3/2019 4:30,1.751,87.401,-0.328,,,,
452,4/3/2019 4:45,1.751,87.451,-0.321,,,,
453,4/3/2019 5:00,1.751,87.603,-0.3,,,,
454,4/3/2019 5:15,1.751,87.603,-0.3,,,,
455,4/3/2019 5:30,1.67,87.684,-0.369,,,,
456,4/3/2019 5:45,1.697,87.843,-0.321,,,,
457,4/3/2019 6:00,1.67,87.886,-0.342,,,,
458,4/3/2019 6:15,2.021,87.746,-0.013,,,,
459,4/3/2019 6:30,2.289,86.313,0.053,,,,
460,4/3/2019 6:45,3.854,85.099,1.423,,,,
461,4/3/2019 7:00,4.141,81.883,1.226,,,,
462,4/3/2019 7:15,3.564,81.987,0.676,,,,
463,4/3/2019 7:30,4.844,80.777,1.744,,,,
464,4/3/2019 7:45,4.921,79.306,1.588,,,,
465,4/3/2019 8:00,5.693,77.599,2.065,,,,
466,4/3/2019 8:15,5.847,75.682,1.894,,,,
467,4/3/2019 8:30,6.737,73.595,2.398,,,,
468,4/3/2019 8:45,6.382,73.055,1.959,,,,
469,4/3/2019 9:00,6.204,72.357,1.662,,,,
470,4/3/2019 9:15,5.847,74.51,1.694,,,,
471,4/3/2019 9:30,5.898,73.259,1.526,,,,
472,4/3/2019 9:45,6.23,73.574,1.902,,,,
473,4/3/2019 10:00,6.611,70.634,1.742,,,,
474,4/3/2019 10:15,6.433,71.905,1.802,,,,
475,4/3/2019 10:30,6.458,70.883,1.641,,,,
476,4/3/2019 10:45,6.484,70.108,1.522,,,,
477,4/3/2019 11:00,6.408,69.814,1.394,,,,
478,4/3/2019 11:15,6.484,71.554,1.788,,,,
479,4/3/2019 11:30,6.914,69.295,1.785,,,,
480,4/3/2019 11:45,7.444,68.327,2.11,,,,
481,4/3/2019 12:00,7.444,68.496,2.142,,,,
482,4/3/2019 12:15,7.519,67.974,2.114,,,,
483,4/3/2019 12:30,7.368,68.482,2.067,,,,
484,4/3/2019 12:45,7.444,65.946,1.643,,,,
485,4/3/2019 13:00,7.419,67.503,1.926,,,,
486,4/3/2019 13:15,7.217,65.735,1.385,,,,
487,4/3/2019 13:30,7.167,65.896,1.369,,,,
488,4/3/2019 13:45,6.839,69.169,1.688,,,,
489,4/3/2019 14:00,7.242,67.527,1.762,,,,
490,4/3/2019 14:15,7.97,64.296,1.812,,,,
491,4/3/2019 14:30,8.519,61.705,1.787,,,,
492,4/3/2019 14:45,8.27,60.353,1.257,,,,
493,4/3/2019 15:00,7.82,62.022,1.192,,,,
494,4/3/2019 15:15,8.17,61.385,1.387,,,,
495,4/3/2019 15:30,8.444,59.446,1.22,,,,
496,4/3/2019 15:45,8.27,61.024,1.403,,,,
497,4/3/2019 16:00,9.509,58.766,2.071,,,,
498,4/3/2019 16:15,9.558,59.775,2.347,,,,
499,4/3/2019 16:30,10.222,60.235,3.078,,,,
500,4/3/2019 16:45,9.386,58.747,1.95,,,,
501,4/3/2019 17:00,6.204,73.349,1.838,,,,
502,4/3/2019 17:15,6.026,76.154,2.148,,,,
503,4/3/2019 17:30,6.763,75.055,2.677,,,,
504,4/3/2019 17:45,6.56,75.75,2.6,,,,
505,4/3/2019 18:00,6.712,73.975,2.44,,,,
506,4/3/2019 18:15,6.585,73.289,2.197,,,,
507,4/3/2019 18:30,6.128,76.257,2.265,,,,
508,4/3/2019 18:45,5.693,79.397,2.358,,,,
509,4/3/2019 19:00,5.411,82.254,2.53,,,,
510,4/3/2019 19:15,5.282,83.931,2.658,,,,
511,4/3/2019 19:30,5.334,85.142,2.889,,,,
512,4/3/2019 19:45,5.334,85.921,3.003,,,,
513,4/3/2019 20:00,5.36,84.523,2.823,,,,
514,4/3/2019 20:15,5.437,81.706,2.471,,,,
515,4/3/2019 20:30,5.385,83.51,2.696,,,,
516,4/3/2019 20:45,5.231,84.336,2.668,,,,
517,4/3/2019 21:00,5.102,84.306,2.537,,,,
518,4/3/2019 21:15,4.947,85.05,2.494,,,,
519,4/3/2019 21:30,4.947,85.931,2.623,,,,
520,4/3/2019 21:45,4.766,86.559,2.535,,,,
521,4/3/2019 22:00,4.506,85.515,2.127,,,,
522,4/3/2019 22:15,4.35,85.813,2.016,,,,
523,4/3/2019 22:30,4.063,86.13,1.779,,,,
524,4/3/2019 22:45,4.089,86.265,1.824,,,,
525,4/3/2019 23:00,3.88,86.984,1.72,,,,
526,4/3/2019 23:15,3.985,87.317,1.87,,,,
527,4/3/2019 23:30,3.801,87.553,1.722,,,,
528,4/3/2019 23:45,3.801,88.47,1.85,,,,
529,4/4/2019 0:00,3.88,89.049,2.008,,,,
530,4/4/2019 0:15,3.854,89.093,1.988,,,,
531,4/4/2019 0:30,3.775,89.453,1.96,,,,
532,4/4/2019 0:45,3.67,89.83,1.907,,,,
533,4/4/2019 1:00,3.722,90.171,2.006,,,,
534,4/4/2019 1:15,3.617,90.447,1.938,,,,
535,4/4/2019 1:30,3.512,90.746,1.874,,,,
536,4/4/2019 1:45,3.617,91.3,2.053,,,,
537,4/4/2019 2:00,3.617,91.425,2.069,,,,
538,4/4/2019 2:15,3.512,91.698,2.001,,,,
539,4/4/2019 2:30,3.248,91.704,1.739,,,,
540,4/4/2019 2:45,3.116,92.118,1.662,,,,
541,4/4/2019 3:00,3.248,92.351,1.824,,,,
542,4/4/2019 3:15,3.221,92.394,1.803,,,,
543,4/4/2019 3:30,3.168,92.38,1.749,,,,
544,4/4/2019 3:45,3.063,92.327,1.636,,,,
545,4/4/2019 4:00,3.009,92.487,1.604,,,,
546,4/4/2019 4:15,2.93,92.466,1.522,,,,
547,4/4/2019 4:30,3.036,92.594,1.645,,,,
548,4/4/2019 4:45,2.85,92.544,1.453,,,,
549,4/4/2019 5:00,2.877,92.552,1.48,,,,
550,4/4/2019 5:15,2.983,92.58,1.59,,,,
551,4/4/2019 5:30,3.248,92.674,1.866,,,,
552,4/4/2019 5:45,3.195,92.487,1.789,,,,
553,4/4/2019 6:00,3.274,92.507,1.871,,,,
554,4/4/2019 6:15,3.301,92.266,1.865,,,,